Вернуться в каталог

STARLINK-4433

АктивенСвязьSSO
NORAD 53478·PAYLOAD·🇺🇸 United States

Запущен Aug 12, 2022 с Vandenberg Space Force Base

Loading…

Ближайшие Пролёты (ближайшие 24 часа)

TLE

СвежийSource: CelesTrak SupGP

Эпоха: Sep 15, 2026, 01:46 UTC

1 53478C 22099P   26258.07409722  .00728510  00000+0  43001-1 0  2582
2 53478  97.2854  12.1112 0001776  90.4033  40.4960 15.11252145    13

Отслеживайте STARLINK-4433 в реальном времени с AllMySat

Download on the App Store